User: anonymous   Login
Location: Theydon Bois
(51.6750°N, 0.1050°E)
Time: 12:15:02
(UTC+00:00)
Language:

MOS 1-B Rocket - Orbit

View from above orbital plane
View from above orbital plane
View from above satellite
View from above satellite

Ground track
Ground track

The orbit data is extracted from the following two-line orbital elements,

1 20491U 90013D   18049.93019899 -.00000579 +00000-0 -10253-2 0  9995
2 20491 099.0178 072.8773 0469140 090.9451 274.5425 13.03519043332891
Epoch (UTC): 18 February 2018 22:19:29
Eccentricity: 0.0469140
inclination: 99.0178°
perigee height: 890 km
apogee height: 1606 km
right ascension of ascending node: 72.8773°
argument of perigee: 90.9451°
revolutions per day: 13.03519043
mean anomaly at epoch: 274.5425°
orbit number at epoch: 33289

The dashed part of the orbit path shows where the satellite is in the earth's shadow,  

DLR